| time (UTC) | temp C | wind direction | speed KPH | gust KPH | rain 1hr cm | rain 24hr cm | rain mn cm | humidity % | barometer mb |
| 20260507065036 | 11 | 355 | 1.6 | 8.0 | 0.00 | 0.00 | 0.00 | 77 | 1015.5 |
| 20260507064555 | 10 | 0 | 0.0 | 9.7 | 0.00 | 0.00 | 0.00 | 77 | 1015.5 |
| 20260507064015 | 10 | 355 | 0.0 | 9.7 | 0.00 | 0.00 | 0.00 | 79 | 1015.5 |
| 20260507063055 | 10 | 343 | 0.0 | 6.4 | 0.00 | 0.00 | 0.00 | 79 | 1015.4 |
| 20260507063016 | 10 | 346 | 1.6 | 6.4 | 0.00 | 0.00 | 0.00 | 80 | 1015.5 |
| 20260507062015 | 9 | 346 | 1.6 | 4.8 | 0.00 | 0.00 | 0.00 | 82 | 1015.4 |
| 20260507061552 | 8 | 0 | 0.0 | 4.8 | 0.00 | 0.00 | 0.00 | 81 | 1015.3 |
| 20260507061015 | 8 | 346 | 1.6 | 4.8 | 0.00 | 0.00 | 0.00 | 82 | 1015.4 |
| 20260507060054 | 8 | 355 | 0.0 | 4.8 | 0.00 | 0.00 | 0.00 | 83 | 1015.3 |
| 20260507060016 | 8 | 355 | 1.6 | 4.8 | 0.00 | 0.00 | 0.00 | 84 | 1015.3 |
| 20260507055015 | 8 | 355 | 1.6 | 4.8 | 0.00 | 0.00 | 0.00 | 85 | 1015.3 |
| 20260507054558 | 7 | 355 | 0.0 | 4.8 | 0.00 | 0.00 | 0.00 | 85 | 1015.2 |
| 20260507054018 | 7 | 355 | 0.0 | 3.2 | 0.00 | 0.00 | 0.00 | 86 | 1015.1 |
| 20260507053049 | 7 | 0 | 0.0 | 1.6 | 0.00 | 0.00 | 0.00 | 86 | 1015.0 |
| 20260507053017 | 7 | 355 | 0.0 | 1.6 | 0.00 | 0.00 | 0.00 | 87 | 1015.0 |
| 20260507052018 | 7 | 355 | 0.0 | 1.6 | 0.00 | 0.00 | 0.00 | 88 | 1014.9 |
| 20260507051552 | 6 | 0 | 0.0 | 3.2 | 0.00 | 0.00 | 0.00 | 87 | 1014.9 |
| 20260507051036 | 6 | 0.0 | 0.0 | 0.00 | 0.00 | 0.00 | 88 | 1014.8 | |
| 20260507050051 | 6 | 0 | 0.0 | 0.0 | 0.00 | 0.00 | 0.00 | 88 | 1014.6 |
| 20260507050018 | 6 | 0.0 | 0.0 | 0.00 | 0.00 | 0.00 | 89 | 1014.8 | |
| 20260507045018 | 6 | 0.0 | 0.0 | 0.00 | 0.00 | 0.00 | 89 | 1014.6 | |
| 20260507044556 | 5 | 0 | 0.0 | 0.0 | 0.00 | 0.00 | 0.00 | 88 | 1014.5 |
| 20260507044017 | 6 | 0.0 | 0.0 | 0.00 | 0.00 | 0.00 | 89 | 1014.6 | |
| 20260507043050 | 5 | 0 | 0.0 | 0.0 | 0.00 | 0.00 | 0.00 | 88 | 1014.4 |
| 20260507043018 | 5 | 0.0 | 0.0 | 0.00 | 0.00 | 0.00 | 89 | 1014.5 | |
| 20260507042018 | 5 | 0.0 | 0.0 | 0.00 | 0.00 | 0.00 | 89 | 1014.5 | |
| 20260507041545 | 5 | 0 | 0.0 | 0.0 | 0.00 | 0.00 | 0.00 | 88 | 1014.4 |
| 20260507041038 | 5 | 0.0 | 0.0 | 0.00 | 0.00 | 0.00 | 89 | 1014.5 | |
| 20260507040104 | 5 | 0 | 0.0 | 0.0 | 0.00 | 0.00 | 0.00 | 88 | 1014.4 |
| 20260507040038 | 5 | 0.0 | 0.0 | 0.00 | 0.00 | 0.00 | 88 | 1014.5 | |
| 20260507035017 | 5 | 0.0 | 0.0 | 0.00 | 0.00 | 0.00 | 88 | 1014.4 | |
| 20260507034557 | 5 | 0 | 0.0 | 0.0 | 0.00 | 0.00 | 0.00 | 88 | 1014.3 |
| 20260507034018 | 5 | 0.0 | 0.0 | 0.00 | 0.00 | 0.00 | 88 | 1014.4 | |
| 20260507033053 | 5 | 0 | 0.0 | 0.0 | 0.00 | 0.00 | 0.00 | 88 | 1014.2 |
| 20260507033018 | 6 | 0.0 | 0.0 | 0.00 | 0.00 | 0.00 | 88 | 1014.3 | |
| 20260507032037 | 6 | 0.0 | 0.0 | 0.00 | 0.00 | 0.00 | 88 | 1014.2 | |
| 20260507031557 | 5 | 0 | 0.0 | 0.0 | 0.00 | 0.00 | 0.00 | 87 | 1014.2 |
| 20260507031018 | 6 | 0.0 | 0.0 | 0.00 | 0.00 | 0.00 | 88 | 1014.2 | |
| 20260507030056 | 5 | 0 | 0.0 | 0.0 | 0.00 | 0.00 | 0.00 | 87 | 1014.1 |
| 20260507030017 | 5 | 0.0 | 0.0 | 0.00 | 0.00 | 0.00 | 88 | 1014.2 | |
| 20260507025038 | 6 | 0.0 | 0.0 | 0.00 | 0.00 | 0.00 | 87 | 1014.1 | |
| 20260507024555 | 5 | 0 | 0.0 | 0.0 | 0.00 | 0.00 | 0.00 | 86 | 1014.1 |
| 20260507024018 | 6 | 0.0 | 0.0 | 0.00 | 0.00 | 0.00 | 87 | 1014.2 | |
| 20260507023051 | 6 | 0 | 0.0 | 0.0 | 0.00 | 0.00 | 0.00 | 86 | 1014.1 |
| 20260507023015 | 6 | 0.0 | 0.0 | 0.00 | 0.00 | 0.00 | 87 | 1014.1 | |
| 20260507022015 | 6 | 0.0 | 0.0 | 0.00 | 0.00 | 0.00 | 86 | 1014.1 | |
| 20260507021550 | 6 | 0 | 0.0 | 0.0 | 0.00 | 0.00 | 0.00 | 86 | 1014.0 |
| 20260507021015 | 6 | 0.0 | 0.0 | 0.00 | 0.00 | 0.00 | 86 | 1014.0 | |
| 20260507020015 | 6 | 0.0 | 0.0 | 0.00 | 0.00 | 0.00 | 86 | 1014.0 | |
| 20260507015035 | 6 | 0.0 | 0.0 | 0.00 | 0.00 | 0.00 | 86 | 1013.8 | |
| 20260507014603 | 6 | 0 | 0.0 | 0.0 | 0.00 | 0.00 | 0.00 | 86 | 1013.8 |
| 20260507014015 | 6 | 0.0 | 0.0 | 0.00 | 0.00 | 0.00 | 86 | 1013.8 | |
| 20260507013056 | 6 | 0 | 0.0 | 1.6 | 0.00 | 0.00 | 0.00 | 85 | 1013.8 |
| 20260507013015 | 6 | 355 | 0.0 | 1.6 | 0.00 | 0.00 | 0.00 | 86 | 1013.9 |
| 20260507012015 | 7 | 0.0 | 0.0 | 0.00 | 0.00 | 0.00 | 86 | 1013.9 | |
| 20260507011601 | 6 | 0 | 0.0 | 0.0 | 0.00 | 0.00 | 0.00 | 85 | 1013.8 |
| 20260507011015 | 7 | 0.0 | 0.0 | 0.00 | 0.00 | 0.00 | 86 | 1013.8 | |
| 20260507010057 | 6 | 0 | 0.0 | 0.0 | 0.00 | 0.00 | 0.00 | 85 | 1013.7 |
| 20260507010015 | 7 | 0.0 | 0.0 | 0.00 | 0.00 | 0.00 | 86 | 1013.8 | |
| 20260507005015 | 7 | 0.0 | 0.0 | 0.00 | 0.00 | 0.00 | 86 | 1013.8 | |
| 20260507004554 | 6 | 0 | 0.0 | 1.6 | 0.00 | 0.00 | 0.00 | 85 | 1013.7 |
| 20260507004015 | 7 | 355 | 0.0 | 1.6 | 0.00 | 0.00 | 0.00 | 86 | 1013.8 |
| 20260507003054 | 6 | 0 | 0.0 | 1.6 | 0.00 | 0.00 | 0.00 | 85 | 1013.7 |
| 20260507003015 | 7 | 0.0 | 1.6 | 0.00 | 0.00 | 0.00 | 86 | 1013.8 | |
| 20260507002015 | 7 | 355 | 0.0 | 1.6 | 0.00 | 0.00 | 0.00 | 85 | 1013.8 |
| 20260507001612 | 6 | 0 | 0.0 | 3.2 | 0.00 | 0.00 | 0.00 | 85 | 1013.8 |
| 20260507001015 | 7 | 355 | 0.0 | 3.2 | 0.00 | 0.00 | 0.00 | 85 | 1013.8 |
| 20260507000100 | 7 | 0 | 0.0 | 0.0 | 0.00 | 0.00 | 0.00 | 85 | 1013.8 |
| 20260507000015 | 7 | 0.0 | 0.0 | 0.00 | 0.00 | 0.00 | 85 | 1013.8 | |
| 20260506235015 | 7 | 0.0 | 0.0 | 0.00 | 0.00 | 0.00 | 85 | 1013.9 | |
| 20260506234558 | 7 | 0 | 0.0 | 0.0 | 0.00 | 0.00 | 0.00 | 84 | 1013.8 |
| 20260506234015 | 7 | 0.0 | 0.0 | 0.00 | 0.00 | 0.00 | 84 | 1013.8 | |
| 20260506233446 | 7 | 0 | 0.0 | 0.0 | 0.00 | 0.00 | 0.00 | 84 | 1013.8 |
| 20260506231018 | 7 | 355 | 0.0 | 3.2 | 0.00 | 0.00 | 0.00 | 84 | 1013.8 |
| 20260506230058 | 7 | 0 | 0.0 | 4.8 | 0.00 | 0.00 | 0.00 | 83 | 1013.7 |
| 20260506230017 | 7 | 355 | 0.0 | 4.8 | 0.00 | 0.00 | 0.00 | 84 | 1013.7 |
| 20260506225017 | 8 | 355 | 0.0 | 3.2 | 0.00 | 0.00 | 0.00 | 84 | 1013.7 |
| 20260506224556 | 7 | 355 | 0.0 | 4.8 | 0.00 | 0.00 | 0.00 | 84 | 1013.7 |
| 20260506224018 | 8 | 355 | 0.0 | 4.8 | 0.00 | 0.00 | 0.00 | 84 | 1013.6 |
| 20260506223112 | 7 | 355 | 0.0 | 4.8 | 0.00 | 0.00 | 0.00 | 83 | 1013.6 |
| 20260506223017 | 8 | 355 | 0.0 | 4.8 | 0.00 | 0.00 | 0.00 | 84 | 1013.6 |
| 20260506222017 | 8 | 355 | 0.0 | 4.8 | 0.00 | 0.00 | 0.00 | 84 | 1013.6 |
| 20260506221556 | 8 | 0 | 1.6 | 4.8 | 0.00 | 0.00 | 0.00 | 83 | 1013.6 |
| 20260506221017 | 8 | 355 | 0.0 | 3.2 | 0.00 | 0.00 | 0.00 | 83 | 1013.6 |
| 20260506220037 | 8 | 355 | 0.0 | 6.4 | 0.00 | 0.00 | 0.00 | 83 | 1013.5 |
| 20260506215017 | 8 | 355 | 0.0 | 4.8 | 0.00 | 0.00 | 0.00 | 83 | 1013.4 |
| 20260506214550 | 8 | 355 | 0.0 | 4.8 | 0.00 | 0.00 | 0.00 | 82 | 1013.4 |
| 20260506214037 | 8 | 355 | 1.6 | 4.8 | 0.00 | 0.00 | 0.00 | 82 | 1013.4 |
| 20260506213047 | 8 | 0 | 0.0 | 6.4 | 0.00 | 0.00 | 0.00 | 81 | 1013.4 |
| 20260506213017 | 8 | 355 | 1.6 | 6.4 | 0.00 | 0.00 | 0.00 | 82 | 1013.4 |
| 20260506212037 | 9 | 355 | 3.2 | 9.7 | 0.00 | 0.00 | 0.00 | 82 | 1013.2 |
| 20260506211553 | 8 | 355 | 1.6 | 8.0 | 0.00 | 0.00 | 0.00 | 81 | 1013.2 |
| 20260506211017 | 9 | 350 | 3.2 | 6.4 | 0.00 | 0.00 | 0.00 | 81 | 1013.2 |
| 20260506210100 | 9 | 0 | 0.0 | 8.0 | 0.00 | 0.00 | 0.00 | 81 | 1013.1 |
| 20260506210017 | 9 | 350 | 1.6 | 6.4 | 0.00 | 0.00 | 0.00 | 81 | 1013.2 |
| 20260506205018 | 10 | 10 | 3.2 | 11.3 | 0.00 | 0.00 | 0.00 | 81 | 1013.1 |
| 20260506204555 | 9 | 17 | 3.2 | 14.5 | 0.00 | 0.00 | 0.00 | 80 | 1013.0 |
| 20260506204017 | 10 | 15 | 4.8 | 14.5 | 0.00 | 0.00 | 0.00 | 80 | 1013.1 |
| 20260506203138 | 10 | 13 | 3.2 | 11.3 | 0.00 | 0.00 | 0.00 | 79 | 1013.0 |
| 20260506203017 | 10 | 12 | 4.8 | 11.3 | 0.00 | 0.00 | 0.00 | 79 | 1013.0 |
| 20260506202017 | 10 | 1 | 4.8 | 9.7 | 0.00 | 0.00 | 0.00 | 78 | 1012.9 |
| 20260506201556 | 10 | 5 | 3.2 | 12.9 | 0.00 | 0.00 | 0.00 | 78 | 1012.9 |
| 20260506201017 | 10 | 20 | 4.8 | 12.9 | 0.00 | 0.00 | 0.00 | 77 | 1012.8 |
| 20260506200055 | 10 | 26 | 4.8 | 14.5 | 0.00 | 0.00 | 0.00 | 76 | 1012.7 |
| 20260506200017 | 10 | 15 | 4.8 | 14.5 | 0.00 | 0.00 | 0.00 | 76 | 1012.7 |
| 20260506195017 | 10 | 6 | 6.4 | 14.5 | 0.00 | 0.00 | 0.00 | 75 | 1012.6 |
| 20260506194558 | 10 | 19 | 4.8 | 14.5 | 0.00 | 0.00 | 0.00 | 74 | 1012.5 |
| 20260506194017 | 10 | 6 | 4.8 | 16.1 | 0.00 | 0.00 | 0.00 | 74 | 1012.5 |
| 20260506193051 | 10 | 11 | 4.8 | 11.3 | 0.00 | 0.00 | 0.00 | 72 | 1012.3 |
| 20260506193017 | 11 | 10 | 4.8 | 11.3 | 0.00 | 0.00 | 0.00 | 72 | 1012.4 |
| 20260506192017 | 11 | 7 | 4.8 | 16.1 | 0.00 | 0.00 | 0.00 | 71 | 1012.2 |
| 20260506191604 | 10 | 0 | 4.8 | 16.1 | 0.00 | 0.00 | 0.00 | 70 | 1012.1 |
| 20260506191017 | 11 | 6 | 6.4 | 17.7 | 0.00 | 0.00 | 0.00 | 70 | 1012.0 |
| 20260506190054 | 11 | 15 | 6.4 | 16.1 | 0.00 | 0.00 | 0.00 | 69 | 1011.8 |
| 20260506190037 | 11 | 12 | 8.0 | 16.1 | 0.00 | 0.00 | 0.00 | 69 | 1011.9 |
| 20260506185017 | 11 | 19 | 9.7 | 20.9 | 0.00 | 0.00 | 0.00 | 68 | 1011.7 |
| 20260506184601 | 11 | 5 | 8.0 | 25.7 | 0.00 | 0.00 | 0.00 | 68 | 1011.7 |
| 20260506184017 | 12 | 11 | 9.7 | 25.7 | 0.00 | 0.00 | 0.00 | 68 | 1011.6 |
| 20260506183111 | 12 | 336 | 6.4 | 19.3 | 0.00 | 0.00 | 0.00 | 67 | 1011.5 |
| 20260506183017 | 12 | 4 | 8.0 | 19.3 | 0.00 | 0.00 | 0.00 | 67 | 1011.5 |
| 20260506182017 | 12 | 357 | 8.0 | 22.5 | 0.00 | 0.00 | 0.00 | 65 | 1011.5 |
| 20260506181545 | 12 | 329 | 9.7 | 22.5 | 0.00 | 0.00 | 0.00 | 64 | 1011.4 |
| 20260506181017 | 13 | 14 | 9.7 | 20.9 | 0.00 | 0.00 | 0.00 | 60 | 1011.4 |
| 20260506180046 | 12 | 355 | 9.7 | 20.9 | 0.00 | 0.00 | 0.00 | 59 | 1011.2 |
| 20260506180017 | 13 | 14 | 11.3 | 20.9 | 0.00 | 0.00 | 0.00 | 60 | 1011.2 |
| 20260506175017 | 13 | 6 | 8.0 | 27.4 | 0.00 | 0.00 | 0.00 | 59 | 1011.1 |
| 20260506174606 | 13 | 360 | 11.3 | 27.4 | 0.00 | 0.00 | 0.00 | 58 | 1011.1 |
| 20260506174017 | 13 | 14 | 9.7 | 22.5 | 0.00 | 0.00 | 0.00 | 60 | 1011.0 |
| 20260506173056 | 13 | 25 | 9.7 | 19.3 | 0.00 | 0.00 | 0.00 | 59 | 1010.9 |
| 20260506173037 | 13 | 3 | 9.7 | 19.3 | 0.00 | 0.00 | 0.00 | 59 | 1010.9 |
| 20260506172017 | 13 | 16 | 9.7 | 24.1 | 0.00 | 0.00 | 0.00 | 60 | 1010.9 |
| 20260506171547 | 12 | 11 | 11.3 | 22.5 | 0.00 | 0.00 | 0.00 | 59 | 1010.8 |
| 20260506171017 | 13 | 18 | 6.4 | 20.9 | 0.00 | 0.00 | 0.00 | 60 | 1010.8 |
| 20260506170051 | 12 | 15 | 8.0 | 20.9 | 0.00 | 0.00 | 0.00 | 60 | 1010.7 |
| 20260506170037 | 13 | 7 | 9.7 | 20.9 | 0.00 | 0.00 | 0.00 | 61 | 1010.7 |
| 20260506165037 | 13 | 13 | 9.7 | 24.1 | 0.00 | 0.00 | 0.00 | 60 | 1010.7 |
| 20260506164557 | 12 | 10 | 11.3 | 27.4 | 0.00 | 0.00 | 0.00 | 60 | 1010.6 |
| 20260506164037 | 13 | 13 | 12.9 | 27.4 | 0.00 | 0.00 | 0.00 | 61 | 1010.7 |
| 20260506163104 | 13 | 30 | 11.3 | 29.0 | 0.00 | 0.00 | 0.00 | 61 | 1010.6 |
| 20260506163017 | 13 | 2 | 11.3 | 29.0 | 0.00 | 0.00 | 0.00 | 61 | 1010.6 |
| 20260506162037 | 14 | 14 | 9.7 | 22.5 | 0.00 | 0.00 | 0.00 | 62 | 1010.6 |
| 20260506161550 | 13 | 86 | 9.7 | 24.1 | 0.00 | 0.00 | 0.00 | 62 | 1010.5 |
| 20260506161017 | 13 | 12 | 9.7 | 24.1 | 0.00 | 0.00 | 0.00 | 62 | 1010.5 |
| 20260506160053 | 13 | 28 | 12.9 | 25.7 | 0.00 | 0.00 | 0.00 | 61 | 1010.6 |
| 20260506160017 | 13 | 18 | 12.9 | 25.7 | 0.00 | 0.00 | 0.00 | 62 | 1010.6 |
| 20260506155017 | 14 | 10 | 9.7 | 22.5 | 0.00 | 0.00 | 0.00 | 63 | 1010.6 |
| 20260506154555 | 13 | 30 | 11.3 | 27.4 | 0.00 | 0.00 | 0.00 | 62 | 1010.5 |
| 20260506154037 | 14 | 15 | 12.9 | 27.4 | 0.00 | 0.00 | 0.00 | 62 | 1010.5 |
| 20260506153057 | 13 | 33 | 9.7 | 25.7 | 0.00 | 0.00 | 0.00 | 61 | 1010.4 |
| 20260506153017 | 14 | 3 | 11.3 | 25.7 | 0.00 | 0.00 | 0.00 | 61 | 1010.5 |
| 20260506152017 | 14 | 12 | 11.3 | 25.7 | 0.00 | 0.00 | 0.00 | 62 | 1010.4 |
| 20260506151556 | 14 | 40 | 9.7 | 27.4 | 0.00 | 0.00 | 0.00 | 63 | 1010.4 |
| 20260506151017 | 14 | 12 | 12.9 | 27.4 | 0.00 | 0.00 | 0.00 | 62 | 1010.4 |
| 20260506150054 | 14 | 48 | 11.3 | 24.1 | 0.00 | 0.00 | 0.00 | 63 | 1010.4 |
| 20260506150037 | 14 | 9 | 9.7 | 22.5 | 0.00 | 0.00 | 0.00 | 63 | 1010.4 |
| 20260506145017 | 14 | 6 | 11.3 | 30.6 | 0.00 | 0.00 | 0.00 | 63 | 1010.4 |
| 20260506144554 | 13 | 346 | 11.3 | 22.5 | 0.00 | 0.00 | 0.00 | 62 | 1010.3 |
| 20260506144017 | 14 | 8 | 12.9 | 24.1 | 0.00 | 0.00 | 0.00 | 61 | 1010.4 |
| 20260506143050 | 14 | 15 | 8.0 | 27.4 | 0.00 | 0.00 | 0.00 | 61 | 1010.3 |
| 20260506143017 | 14 | 27 | 11.3 | 27.4 | 0.00 | 0.00 | 0.00 | 62 | 1010.3 |
| 20260506142017 | 14 | 13 | 14.5 | 24.1 | 0.00 | 0.00 | 0.00 | 62 | 1010.3 |
| 20260506141549 | 14 | 360 | 8.0 | 24.1 | 0.00 | 0.00 | 0.00 | 62 | 1010.2 |
| 20260506141017 | 14 | 7 | 9.7 | 22.5 | 0.00 | 0.00 | 0.00 | 61 | 1010.3 |
| 20260506140047 | 13 | 33 | 9.7 | 25.7 | 0.00 | 0.00 | 0.00 | 62 | 1010.2 |
| 20260506140017 | 13 | 11 | 9.7 | 24.1 | 0.00 | 0.00 | 0.00 | 62 | 1010.3 |
| 20260506135017 | 13 | 17 | 11.3 | 25.7 | 0.00 | 0.00 | 0.00 | 62 | 1010.3 |
| 20260506134552 | 13 | 15 | 11.3 | 24.1 | 0.00 | 0.00 | 0.00 | 62 | 1010.2 |
| 20260506134017 | 13 | 14 | 14.5 | 24.1 | 0.00 | 0.00 | 0.00 | 61 | 1010.3 |
| 20260506133047 | 14 | 324 | 11.3 | 27.4 | 0.00 | 0.00 | 0.00 | 60 | 1010.2 |
| 20260506133017 | 14 | 12 | 12.9 | 27.4 | 0.00 | 0.00 | 0.00 | 60 | 1010.2 |
| 20260506132017 | 14 | 9 | 9.7 | 25.7 | 0.00 | 0.00 | 0.00 | 61 | 1010.1 |
| 20260506131543 | 13 | 19 | 12.9 | 25.7 | 0.00 | 0.00 | 0.00 | 60 | 1010.1 |
| 20260506131017 | 14 | 8 | 11.3 | 25.7 | 0.00 | 0.00 | 0.00 | 65 | 1010.1 |
| 20260506130054 | 13 | 5 | 8.0 | 25.7 | 0.00 | 0.00 | 0.00 | 65 | 1010.0 |
| 20260506130017 | 13 | 10 | 9.7 | 25.7 | 0.00 | 0.00 | 0.00 | 65 | 1010.1 |
| 20260506125017 | 14 | 3 | 9.7 | 24.1 | 0.00 | 0.00 | 0.00 | 66 | 1010.1 |
| 20260506124555 | 13 | 257 | 9.7 | 24.1 | 0.00 | 0.00 | 0.00 | 65 | 1010.0 |
| 20260506124016 | 14 | 358 | 11.3 | 20.9 | 0.00 | 0.00 | 0.00 | 65 | 1010.1 |
| 20260506123057 | 13 | 20 | 9.7 | 19.3 | 0.00 | 0.00 | 0.00 | 66 | 1010.0 |
| 20260506123050 | 13 | 15 | 8.0 | 20.9 | 0.00 | 0.00 | 0.00 | 64 | 1010.0 |
| 20260506122017 | 13 | 14 | 8.0 | 16.1 | 0.00 | 0.00 | 0.00 | 64 | 1010.0 |
| 20260506121554 | 13 | 24 | 8.0 | 22.5 | 0.00 | 0.00 | 0.00 | 64 | 1010.0 |
| 20260506121037 | 13 | 9 | 9.7 | 22.5 | 0.00 | 0.00 | 0.00 | 65 | 1010.0 |
| 20260506120058 | 13 | 327 | 8.0 | 24.1 | 0.00 | 0.00 | 0.00 | 66 | 1009.8 |
| 20260506120015 | 13 | 8 | 9.7 | 24.1 | 0.00 | 0.00 | 0.00 | 66 | 1009.9 |
| 20260506115017 | 13 | 9 | 9.7 | 25.7 | 0.00 | 0.00 | 0.00 | 66 | 1009.9 |
| 20260506114554 | 13 | 16 | 11.3 | 25.7 | 0.00 | 0.00 | 0.00 | 65 | 1009.9 |
| 20260506114016 | 13 | 6 | 8.0 | 22.5 | 0.00 | 0.00 | 0.00 | 66 | 1010.0 |
| 20260506113053 | 13 | 28 | 4.8 | 19.3 | 0.00 | 0.00 | 0.00 | 66 | 1010.0 |
| 20260506113035 | 13 | 12 | 8.0 | 19.3 | 0.00 | 0.00 | 0.00 | 65 | 1010.0 |
| 20260506112036 | 13 | 19 | 8.0 | 19.3 | 0.00 | 0.00 | 0.00 | 64 | 1009.9 |
| 20260506111553 | 13 | 42 | 6.4 | 19.3 | 0.00 | 0.00 | 0.00 | 64 | 1009.8 |
| 20260506111016 | 13 | 9 | 9.7 | 20.9 | 0.00 | 0.00 | 0.00 | 63 | 1009.9 |
| 20260506110015 | 13 | 11 | 9.7 | 17.7 | 0.00 | 0.00 | 0.00 | 63 | 1009.9 |
| 20260506105036 | 13 | 46 | 8.0 | 20.9 | 0.00 | 0.00 | 0.00 | 63 | 1009.9 |
| 20260506104606 | 13 | 61 | 9.7 | 25.7 | 0.00 | 0.00 | 0.00 | 63 | 1009.9 |
| 20260506104017 | 13 | 15 | 11.3 | 25.7 | 0.00 | 0.00 | 0.00 | 66 | 1009.9 |
| 20260506103103 | 13 | 26 | 8.0 | 22.5 | 0.00 | 0.00 | 0.00 | 66 | 1009.7 |
| 20260506103016 | 13 | 7 | 8.0 | 22.5 | 0.00 | 0.00 | 0.00 | 67 | 1009.9 |
| 20260506101613 | 12 | 360 | 8.0 | 25.7 | 0.00 | 0.00 | 0.00 | 66 | 1009.7 |
| 20260506101517 | 13 | 18 | 11.3 | 24.1 | 0.00 | 0.00 | 0.00 | 67 | 1009.9 |
| 20260506101041 | 13 | 19 | 9.7 | 25.7 | 0.00 | 0.00 | 0.00 | 67 | 1009.9 |
| 20260506100051 | 12 | 18 | 6.4 | 19.3 | 0.00 | 0.00 | 0.00 | 69 | 1009.7 |
| 20260506100017 | 12 | 6 | 8.0 | 19.3 | 0.00 | 0.00 | 0.00 | 71 | 1009.8 |
| 20260506095016 | 12 | 16 | 9.7 | 25.7 | 0.00 | 0.00 | 0.00 | 72 | 1009.8 |
| 20260506094600 | 12 | 31 | 3.2 | 17.7 | 0.00 | 0.00 | 0.00 | 72 | 1009.7 |
| 20260506094017 | 12 | 20 | 4.8 | 22.5 | 0.00 | 0.00 | 0.00 | 72 | 1009.8 |
| 20260506093102 | 12 | 360 | 9.7 | 22.5 | 0.00 | 0.00 | 0.00 | 71 | 1009.8 |
| 20260506093015 | 12 | 18 | 9.7 | 22.5 | 0.00 | 0.00 | 0.00 | 72 | 1009.8 |
| 20260506092017 | 12 | 14 | 9.7 | 25.7 | 0.00 | 0.00 | 0.00 | 71 | 1009.8 |
| 20260506091551 | 12 | 12 | 8.0 | 17.7 | 0.00 | 0.00 | 0.00 | 71 | 1009.7 |
| 20260506091017 | 12 | 17 | 9.7 | 22.5 | 0.00 | 0.00 | 0.00 | 72 | 1009.6 |
| 20260506090109 | 12 | 11 | 8.0 | 24.1 | 0.00 | 0.00 | 0.00 | 71 | 1009.6 |
| 20260506090017 | 12 | 20 | 8.0 | 24.1 | 0.00 | 0.00 | 0.00 | 71 | 1009.6 |
| 20260506085016 | 12 | 10 | 12.9 | 27.4 | 0.00 | 0.00 | 0.00 | 70 | 1009.6 |
| 20260506084603 | 12 | 25 | 11.3 | 27.4 | 0.00 | 0.00 | 0.00 | 70 | 1009.5 |
| 20260506084016 | 12 | 12 | 8.0 | 17.7 | 0.00 | 0.00 | 0.00 | 73 | 1009.5 |
| 20260506083052 | 12 | 33 | 6.4 | 25.7 | 0.00 | 0.00 | 0.00 | 73 | 1009.5 |
| 20260506083016 | 12 | 20 | 6.4 | 25.7 | 0.00 | 0.00 | 0.00 | 74 | 1009.5 |
| 20260506082016 | 12 | 1 | 8.0 | 19.3 | 0.00 | 0.00 | 0.00 | 74 | 1009.5 |
| 20260506081605 | 12 | 344 | 8.0 | 19.3 | 0.00 | 0.00 | 0.00 | 74 | 1009.5 |
| 20260506081016 | 12 | 19 | 6.4 | 14.5 | 0.00 | 0.00 | 0.00 | 75 | 1009.5 |
| 20260506073054 | 12 | 28 | 4.8 | 16.1 | 0.00 | 0.00 | 0.00 | 77 | 1009.3 |
| 20260506073016 | 12 | 25 | 4.8 | 16.1 | 0.00 | 0.00 | 0.00 | 78 | 1009.3 |
| 20260506072036 | 11 | 13 | 6.4 | 14.5 | 0.00 | 0.00 | 0.00 | 79 | 1009.3 |
| 20260506071552 | 11 | 27 | 4.8 | 17.7 | 0.00 | 0.00 | 0.00 | 78 | 1009.3 |
| 20260506071015 | 11 | 23 | 8.0 | 17.7 | 0.00 | 0.00 | 0.00 | 78 | 1009.3 |